CG6042 KAVX-KPIE

Flight info

Callsign CG6042
Flight time N/A
Altitude 1500
Route KPIE DCT WEST COASTLINE PATROL DCT KPIE
Aircraft H60/M-SDFGIRY/S

Departure

Time N/A
Airport Catalina Airport (KAVX)

Arrival

Time 2026-04-25 18:27
Airport St. Petersburg Clearwater International Airport (KPIE)
Time Latitude Longitude Altitude Speed Heading
2026-04-25 18:27 27.91306 -82.69478 20 ft 0 kts 131°
2026-04-25 18:36 27.91305 -82.69477 21 ft 1 kts 134°
2026-04-25 18:36 27.91300 -82.69473 20 ft 0 kts 137°
2026-04-25 18:37 27.91299 -82.69473 33 ft 2 kts 144°
2026-04-25 18:37 27.91321 -82.69545 199 ft 43 kts 305°
2026-04-25 18:37 27.91628 -82.70011 829 ft 103 kts 307°
2026-04-25 18:37 27.92130 -82.70878 1129 ft 153 kts 300°
2026-04-25 18:38 27.92621 -82.72036 1335 ft 168 kts 293°
2026-04-25 18:38 27.92846 -82.73322 1535 ft 170 kts 268°
2026-04-25 18:38 27.92699 -82.74663 1703 ft 170 kts 261°
2026-04-25 18:38 27.92620 -82.76011 1591 ft 173 kts 267°
2026-04-25 18:39 27.92569 -82.77386 1269 ft 169 kts 268°
2026-04-25 18:39 27.92551 -82.78724 1380 ft 175 kts 270°
2026-04-25 18:39 27.92526 -82.80113 1498 ft 178 kts 267°
2026-04-25 18:39 27.92501 -82.81450 1528 ft 164 kts 267°
2026-04-25 18:40 27.92473 -82.82752 1528 ft 164 kts 267°
2026-04-25 18:40 27.92393 -82.84038 1508 ft 164 kts 258°
2026-04-25 18:40 27.91812 -82.85112 1506 ft 156 kts 218°
2026-04-25 18:40 27.90862 -82.85385 1479 ft 141 kts 188°
2026-04-25 18:41 27.89848 -82.85514 1501 ft 153 kts 188°
2026-04-25 18:41 27.88785 -82.85664 1511 ft 159 kts 188°
2026-04-25 18:41 27.87672 -82.85803 1514 ft 162 kts 176°
2026-04-25 18:41 27.86545 -82.85912 1508 ft 162 kts 182°
2026-04-25 18:42 27.85444 -82.85817 1518 ft 155 kts 149°
2026-04-25 18:42 27.85097 -82.85705 1488 ft 154 kts 164°
2026-04-25 18:42 27.83459 -82.84857 1515 ft 158 kts 156°
2026-04-25 18:42 27.82448 -82.84308 1500 ft 161 kts 156°
2026-04-25 18:43 27.81451 -82.83689 1473 ft 163 kts 149°
2026-04-25 18:43 27.80600 -82.82820 1476 ft 165 kts 136°
2026-04-25 18:43 27.79810 -82.81877 1481 ft 166 kts 136°
2026-04-25 18:43 27.79020 -82.80928 1479 ft 166 kts 136°
2026-04-25 18:44 27.78241 -82.79977 1474 ft 165 kts 136°
2026-04-25 18:44 27.77467 -82.79027 1480 ft 164 kts 136°
2026-04-25 18:44 27.76682 -82.78086 1479 ft 166 kts 136°
2026-04-25 18:44 27.75882 -82.77147 1478 ft 166 kts 136°
2026-04-25 18:45 27.74996 -82.76331 1484 ft 163 kts 153°
2026-04-25 18:45 27.73941 -82.75857 1475 ft 165 kts 163°
2026-04-25 18:45 27.72870 -82.75393 1478 ft 165 kts 163°
2026-04-25 18:45 27.71804 -82.74916 1478 ft 165 kts 163°
2026-04-25 18:46 27.70737 -82.74468 1483 ft 163 kts 163°
2026-04-25 18:46 27.69696 -82.74016 1484 ft 162 kts 163°
2026-04-25 18:46 27.68643 -82.73564 1482 ft 163 kts 163°
2026-04-25 18:46 27.67574 -82.73133 1481 ft 162 kts 164°
2026-04-25 18:47 27.66499 -82.72710 1481 ft 164 kts 163°
2026-04-25 18:47 27.65430 -82.72259 1482 ft 164 kts 163°
2026-04-25 18:47 27.64386 -82.71818 1469 ft 151 kts 168°
2026-04-25 18:47 27.63364 -82.71939 931 ft 155 kts 207°
2026-04-25 18:48 27.62499 -82.72775 183 ft 165 kts 234°
2026-04-25 18:48 27.62350 -82.73695 296 ft 72 kts 80°
2026-04-25 18:48 27.62479 -82.73801 118 ft 40 kts 185°
2026-04-25 18:48 27.62300 -82.73767 9 ft 1 kts 197°
2026-04-25 18:49 27.62286 -82.73777 7 ft 0 kts 200°
2026-04-25 18:49 27.62285 -82.73777 7 ft 1 kts 201°
2026-04-25 18:50 27.62327 -82.74118 181 ft 109 kts 285°
2026-04-25 18:50 27.62777 -82.74606 163 ft 156 kts 330°
2026-04-25 18:50 27.63849 -82.74722 708 ft 156 kts
2026-04-25 18:50 27.64963 -82.74632 1313 ft 171 kts
2026-04-25 18:51 27.66251 -82.74697 1301 ft 191 kts 355°
2026-04-25 18:51 27.67122 -82.74725 1398 ft 184 kts 358°
2026-04-25 18:51 27.68695 -82.74757 1382 ft 157 kts
2026-04-25 18:51 27.69763 -82.74809 1389 ft 157 kts 355°
2026-04-25 18:52 27.70883 -82.75038 1392 ft 169 kts 345°
2026-04-25 18:52 27.72033 -82.75403 1382 ft 175 kts 341°
2026-04-25 18:52 27.73212 -82.75790 1389 ft 178 kts 342°
2026-04-25 18:52 27.74377 -82.76205 1397 ft 178 kts 342°
2026-04-25 18:53 27.75568 -82.76610 1399 ft 180 kts 342°
2026-04-25 18:53 27.76775 -82.77009 1395 ft 181 kts 342°
2026-04-25 18:53 27.77930 -82.77528 1392 ft 175 kts 328°
2026-04-25 18:53 27.78965 -82.78266 1395 ft 178 kts 327°
2026-04-25 18:54 27.81081 -82.79785 1398 ft 181 kts 327°
2026-04-25 18:54 27.82148 -82.80530 1399 ft 180 kts 327°
2026-04-25 18:54 27.83203 -82.81281 1397 ft 178 kts 327°
2026-04-25 18:55 27.84252 -82.82017 1397 ft 178 kts 327°
2026-04-25 18:55 27.85319 -82.82758 1401 ft 181 kts 327°
2026-04-25 18:55 27.86390 -82.83503 1410 ft 180 kts 327°
2026-04-25 18:55 27.87465 -82.84242 1401 ft 183 kts 327°
2026-04-25 18:56 27.88610 -82.84973 1422 ft 192 kts 333°
2026-04-25 18:56 27.89881 -82.85389 1427 ft 187 kts 351°
2026-04-25 18:56 27.91122 -82.85296 1429 ft 177 kts 12°
2026-04-25 18:56 27.92324 -82.84945 1431 ft 179 kts 15°
2026-04-25 18:57 27.93534 -82.84565 1418 ft 181 kts 15°
2026-04-25 18:57 27.94762 -82.84196 1411 ft 183 kts 15°
2026-04-25 18:57 27.95999 -82.83811 1409 ft 184 kts 15°
2026-04-25 18:57 27.96818 -82.83555 1414 ft 184 kts 15°
2026-04-25 18:58 27.98476 -82.83042 1407 ft 185 kts 15°
2026-04-25 18:58 28.00924 -82.82243 1401 ft 170 kts 15°
2026-04-25 18:58 28.02083 -82.81868 1399 ft 180 kts 15°
2026-04-25 18:59 28.04531 -82.81045 1405 ft 185 kts 15°
2026-04-25 18:59 28.07006 -82.80280 1411 ft 185 kts 14°
2026-04-25 19:00 28.09494 -82.79597 1416 ft 184 kts 14°
2026-04-25 19:00 28.10750 -82.79252 1407 ft 187 kts 14°
2026-04-25 19:01 28.13290 -82.78744 1384 ft 185 kts 359°
2026-04-25 19:01 28.14567 -82.78880 1379 ft 183 kts 351°
2026-04-25 19:01 28.15828 -82.79108 1381 ft 183 kts 348°
2026-04-25 19:01 28.17072 -82.79375 1386 ft 175 kts 347°
2026-04-25 19:02 28.19267 -82.79758 1311 ft 137 kts 152°
2026-04-25 19:02 28.19992 -82.80008 4 ft 179 kts
2026-04-25 19:02 28.20864 -82.80325 834 ft 96 kts 155°
2026-04-25 19:03 28.21120 -82.80353 1662 ft 69 kts 187°
2026-04-25 19:03 28.20090 -82.80231 2180 ft 166 kts 180°
2026-04-25 19:03 28.18810 -82.80069 1596 ft 173 kts 172°
2026-04-25 19:04 28.16711 -82.79488 1501 ft 135 kts 170°
2026-04-25 19:04 28.15814 -82.79226 1444 ft 142 kts 170°
2026-04-25 19:05 28.13806 -82.78709 1305 ft 128 kts 174°
2026-04-25 19:05 28.11817 -82.78553 1259 ft 156 kts 184°
2026-04-25 19:05 28.10762 -82.78529 1449 ft 147 kts 182°
2026-04-25 19:06 28.09781 -82.78521 1437 ft 140 kts 182°
2026-04-25 19:06 28.07944 -82.78526 1732 ft 84 kts 182°
2026-04-25 19:06 28.07565 -82.78499 1987 ft 33 kts 182°
2026-04-25 19:07 28.06727 -82.78429 1975 ft 97 kts 187°
2026-04-25 19:07 28.05879 -82.78455 1176 ft 150 kts 175°
2026-04-25 19:08 28.03743 -82.78833 1405 ft 167 kts 203°
2026-04-25 19:08 28.02604 -82.79333 1321 ft 178 kts 202°
2026-04-25 19:09 27.99231 -82.80228 1366 ft 175 kts 193°
2026-04-25 19:09 27.98417 -82.80415 1446 ft 184 kts 193°
2026-04-25 19:09 27.95596 -82.81098 1517 ft 169 kts 193°
2026-04-25 19:10 27.94420 -82.81381 1473 ft 173 kts 193°
2026-04-25 19:10 27.93280 -82.81616 1496 ft 164 kts 171°
2026-04-25 19:10 27.92288 -82.81363 1481 ft 137 kts 131°
2026-04-25 19:10 27.91543 -82.80584 1552 ft 145 kts 134°
2026-04-25 19:11 27.90974 -82.79598 1504 ft 153 kts 94°
2026-04-25 19:11 27.90770 -82.78397 1514 ft 155 kts 81°
2026-04-25 19:11 27.90927 -82.77294 1521 ft 133 kts 47°
2026-04-25 19:11 27.91504 -82.76651 1482 ft 108 kts 332°
2026-04-25 19:12 27.92340 -82.76439 1490 ft 137 kts 33°
2026-04-25 19:12 27.92945 -82.75699 1491 ft 126 kts 101°
2026-04-25 19:12 27.92891 -82.74575 1490 ft 163 kts 107°
2026-04-25 19:12 27.92643 -82.73294 989 ft 172 kts 113°
2026-04-25 19:13 27.92271 -82.71987 861 ft 169 kts 116°
2026-04-25 19:13 27.91870 -82.70851 656 ft 134 kts 113°
2026-04-25 19:13 27.91630 -82.69986 370 ft 95 kts 130°
2026-04-25 19:13 27.91490 -82.69633 114 ft 20 kts 117°
2026-04-25 19:14 27.91376 -82.69565 90 ft 15 kts 139°
2026-04-25 19:14 27.91356 -82.69541 72 ft 11 kts 133°
2026-04-25 19:14 27.91300 -82.69479 25 ft 2 kts 138°
2026-04-25 19:14 27.91297 -82.69478 22 ft 0 kts 108°